Regional Weather Roundup
Issued by NWS

Home | Current Version | Previous Version | Text Only | Print | Product List | Glossary Off
Versions: 1 2 3 4 5 6 7 8 9 10 11 12 13 14 15 16 17 18 19 20 21 22 23 24 25 26 27 28 29 30 31 32 33 34 35 36 37 38 39 40 41 42 43 44 45 46 47 48 49 50

000
ASUS45 KSLC 212210
RWRUT

UTAH REGIONAL WEATHER ROUNDUP
NATIONAL WEATHER SERVICE SALT LAKE CITY UT
400 PM MDT THU MAY 21 2015

UTZ001>011-023>025-212300-

NORTHERN UTAH

CITY           SKY/WX    TMP DP  RH WIND       PRES   REMARKS
BRIGHAM CITY   PTSUNNY   67  40  36 E30G40    29.90R
HILL AFB       CLOUDY    55  41  60 E14G25    29.93R THUNDER
LOGAN          LGT RAIN  62  43  49 SE15      29.90R
OGDEN          LGT RAIN  55  46  71 SE16G23   29.91R
PROVO AIRPORT  PTSUNNY   63  39  42 NE5       29.92F
SALT LAKE CITY CLOUDY    64  43  46 W13       29.90R
VERNAL         MOSUNNY   68  35  29 CALM      29.92F
WENDOVER       PTSUNNY   70  43  37 S3        29.87F
HEBER CITY     LGT RAIN  52  43  71 CALM      29.99F
WEST JORDAN    CLOUDY    63  45  51 W3        29.93S

$$

UTZ012>022-026-027-212300-

SOUTHERN/CENTRAL UTAH

CITY           SKY/WX    TMP DP  RH WIND       PRES   REMARKS
BLANDING       PTSUNNY   70  30  22 S8G18     30.00F
BRYCE CANYON   CLOUDY    56  26  31 SE18G24   30.02F
CEDAR CITY     CLOUDY    64  28  25 W6        29.91F
DELTA          CLOUDY    69  25  19 S9        29.89F
HANKSVILLE     CLOUDY    75  27  16 SW10      29.88F
MILFORD        PTSUNNY   67  28  23 S20G30    29.90F
MOAB/CYNLANDS  SUNNY     75  30  19 W10       29.86F
PRICE          PTSUNNY   70  28  21 S10G20    29.93F
ST GEORGE      CLOUDY    77  28  16 N8        29.82F
KANAB          PTSUNNY   72  28  20 S15       29.92F

$$

REGIONAL REPORTS     COLORADO/ARIZONA

CITY           SKY/WX    TMP DP  RH WIND       PRES   REMARKS
CRAIG, CO      PTSUNNY   65  39  38 E14       30.00F
GRAND JUNCTION CLOUDY    70  34  26 SE7       29.89F
RIFLE          CLOUDY    70  34  26 N5        29.93F
MONTROSE       CLOUDY    63  36  36 S28G36    29.99F
CORTEZ         MOSUNNY   71  32  23 S16G28    29.95F
PAGE, AZ       NOT AVBL
GRAND CANYON   CLOUDY    61  21  21 SW15G23   29.98F
KINGMAN        CLOUDY    76  24  14 SW18      29.84F
FLAGSTAFF      MOSUNNY   60  25  26 SW18      30.01F

$$

REGIONAL REPORTS    NEVADA/IDAHO/WYOMING

CITY           SKY/WX    TMP DP  RH WIND       PRES   REMARKS
LAS VEGAS, NV  PTSUNNY   80  27  14 S8        29.73F
ELY            CLOUDY    58  33  39 SE15G22   29.96F
ELKO           CLOUDY    62  42  47 NW8       29.90F
POCATELLO, ID  PTSUNNY   68  44  42 NW8       29.90F
BURLEY         PTSUNNY   68  41  37 VRB3      29.87F
EVANSTON, WY   CLOUDY    49  37  63 S9        30.05S
ROCK SPRINGS   CLOUDY    55  37  50 E21       30.03S
KEMMERER       LGT RAIN  43  37  81 SE14      30.08R

$$



USA.gov is the U.S. government's official web portal to all federal, state and local government web resources and services.